Time,TemperatureF,DewpointF,PressureIn,WindDirection,WindDirectionDegrees,WindSpeedMPH,WindSpeedGustMPH,Humidity,HourlyPrecipIn,Conditions,Clouds,dailyrainin,SoftwareType,DateUTC
2013-05-17 00:01:00,64.5,57.1,29.93,WNW,301,0.0,0.0,77,0.00,,---,0.01,VWS V14.01,2013-05-17 04:01:00,
2013-05-17 00:02:00,64.5,57.1,29.93,WNW,301,0.0,0.0,77,0.00,,---,0.00,VWS V14.01,2013-05-17 04:02:00,
2013-05-17 00:07:00,64.3,57.0,29.93,North,359,0.0,0.0,77,0.00,,---,0.00,VWS V14.01,2013-05-17 04:07:00,
2013-05-17 00:12:00,64.1,57.1,29.93,NW,309,0.0,0.0,78,0.00,,---,0.00,VWS V14.01,2013-05-17 04:12:00,
2013-05-17 00:18:00,64.1,56.8,29.93,WNW,287,0.0,0.0,77,0.00,,---,0.00,VWS V14.01,2013-05-17 04:18:00,
2013-05-17 00:23:00,64.1,56.8,29.93,WNW,290,1.0,1.0,77,0.00,,---,0.00,VWS V14.01,2013-05-17 04:23:00,
2013-05-17 00:28:00,64.0,56.7,29.93,WNW,291,0.0,1.0,77,0.00,,---,0.00,VWS V14.01,2013-05-17 04:28:00,
2013-05-17 00:33:00,64.0,56.7,29.93,WNW,291,0.0,0.0,77,0.00,,---,0.00,VWS V14.01,2013-05-17 04:33:00,
2013-05-17 00:38:00,63.9,56.6,29.93,WNW,291,0.0,0.0,77,0.00,,---,0.00,VWS V14.01,2013-05-17 04:38:00,
2013-05-17 00:43:00,64.0,56.7,29.93,WNW,291,0.0,0.0,77,0.00,,---,0.00,VWS V14.01,2013-05-17 04:43:00,
2013-05-17 00:48:00,64.0,56.7,29.93,WNW,291,0.0,1.0,77,0.00,,---,0.00,VWS V14.01,2013-05-17 04:48:00,
2013-05-17 00:53:00,63.9,56.6,29.93,WNW,291,0.0,1.0,77,0.00,,---,0.00,VWS V14.01,2013-05-17 04:53:00,
2013-05-17 00:58:00,63.9,56.9,29.93,WNW,288,0.0,0.0,78,0.00,,---,0.00,VWS V14.01,2013-05-17 04:58:00,
2013-05-17 01:03:00,63.7,56.7,29.93,WNW,290,0.0,0.0,78,0.00,,---,0.00,VWS V14.01,2013-05-17 05:03:00,
2013-05-17 01:08:00,63.6,56.6,29.93,WNW,288,0.0,0.0,78,0.00,,---,0.00,VWS V14.01,2013-05-17 05:08:00,
2013-05-17 01:13:00,63.5,56.5,29.93,WNW,288,0.0,0.0,78,0.00,,---,0.00,VWS V14.01,2013-05-17 05:13:00,
2013-05-17 01:18:00,63.4,56.8,29.93,WNW,288,0.0,0.0,79,0.00,,---,0.00,VWS V14.01,2013-05-17 05:18:00,
2013-05-17 01:23:00,63.2,56.6,29.93,WNW,288,0.0,0.0,79,0.00,,---,0.00,VWS V14.01,2013-05-17 05:23:00,
2013-05-17 01:28:00,63.0,56.4,29.93,WNW,288,0.0,0.0,79,0.00,,---,0.00,VWS V14.01,2013-05-17 05:28:00,
2013-05-17 01:33:00,62.8,56.5,29.93,West,276,0.0,0.0,80,0.00,,---,0.00,VWS V14.01,2013-05-17 05:33:00,
2013-05-17 01:38:00,62.6,56.3,29.93,West,277,0.0,0.0,80,0.00,,---,0.00,VWS V14.01,2013-05-17 05:38:00,
2013-05-17 01:44:00,62.4,56.5,29.93,West,276,0.0,0.0,81,0.00,,---,0.00,VWS V14.01,2013-05-17 05:44:00,
2013-05-17 01:49:00,62.1,56.5,29.93,West,277,0.0,1.0,82,0.00,,---,0.00,VWS V14.01,2013-05-17 05:49:00,
2013-05-17 01:54:00,61.9,56.3,29.93,West,275,0.0,1.0,82,0.00,,---,0.00,VWS V14.01,2013-05-17 05:54:00,
2013-05-17 01:59:00,61.8,56.2,29.93,West,277,0.0,1.0,82,0.00,,---,0.00,VWS V14.01,2013-05-17 05:59:00,
2013-05-17 02:04:00,61.7,56.5,29.93,West,277,0.0,0.0,83,0.00,,---,0.00,VWS V14.01,2013-05-17 06:04:00,
2013-05-17 02:09:00,61.6,56.4,29.93,West,276,0.0,1.0,83,0.00,,---,0.00,VWS V14.01,2013-05-17 06:09:00,
2013-05-17 02:14:00,61.5,56.3,29.93,West,277,0.0,0.0,83,0.00,,---,0.00,VWS V14.01,2013-05-17 06:14:00,
2013-05-17 02:19:00,61.4,56.2,29.93,West,277,0.0,0.0,83,0.00,,---,0.00,VWS V14.01,2013-05-17 06:19:00,
2013-05-17 02:24:00,61.2,56.3,29.93,West,278,0.0,0.0,84,0.00,,---,0.00,VWS V14.01,2013-05-17 06:24:00,
2013-05-17 02:29:00,61.3,56.4,29.93,West,278,0.0,0.0,84,0.00,,---,0.00,VWS V14.01,2013-05-17 06:29:00,
2013-05-17 02:34:00,61.4,56.2,29.93,West,278,0.0,0.0,83,0.00,,---,0.00,VWS V14.01,2013-05-17 06:34:00,
2013-05-17 02:39:00,61.7,56.5,29.93,West,278,0.0,0.0,83,0.00,,---,0.00,VWS V14.01,2013-05-17 06:39:00,
2013-05-17 02:44:00,61.7,56.5,29.93,West,278,0.0,1.0,83,0.00,,---,0.00,VWS V14.01,2013-05-17 06:44:00,
2013-05-17 02:49:00,61.7,56.5,29.93,West,278,0.0,0.0,83,0.00,,---,0.00,VWS V14.01,2013-05-17 06:49:00,
2013-05-17 02:55:00,61.7,56.2,29.93,West,278,0.0,0.0,82,0.00,,---,0.00,VWS V14.01,2013-05-17 06:55:00,
2013-05-17 03:00:00,61.6,56.4,29.93,West,278,0.0,0.0,83,0.00,,---,0.00,VWS V14.01,2013-05-17 07:00:00,
2013-05-17 03:05:00,61.6,56.1,29.93,West,278,0.0,0.0,82,0.00,,---,0.00,VWS V14.01,2013-05-17 07:05:00,
2013-05-17 03:10:00,61.5,56.3,29.94,West,278,0.0,1.0,83,0.00,,---,0.00,VWS V14.01,2013-05-17 07:10:00,
2013-05-17 03:15:00,61.4,56.2,29.94,West,278,0.0,0.0,83,0.00,,---,0.00,VWS V14.01,2013-05-17 07:15:00,
2013-05-17 03:20:00,61.3,56.1,29.94,West,278,0.0,0.0,83,0.00,,---,0.00,VWS V14.01,2013-05-17 07:20:00,
2013-05-17 03:25:00,61.2,56.3,29.94,West,278,0.0,1.0,84,0.00,,---,0.00,VWS V14.01,2013-05-17 07:25:00,
2013-05-17 03:31:00,61.0,56.1,29.94,West,278,0.0,0.0,84,0.00,,---,0.00,VWS V14.01,2013-05-17 07:31:00,
2013-05-17 03:36:00,60.9,56.0,29.95,West,278,0.0,0.0,84,0.00,,---,0.00,VWS V14.01,2013-05-17 07:36:00,
2013-05-17 03:41:00,60.8,56.3,29.95,West,278,1.0,1.0,85,0.00,,---,0.00,VWS V14.01,2013-05-17 07:41:00,
2013-05-17 03:46:00,60.6,56.1,29.95,West,277,0.0,0.0,85,0.00,,---,0.00,VWS V14.01,2013-05-17 07:46:00,
2013-05-17 03:51:00,60.5,56.0,29.95,West,280,0.0,1.0,85,0.00,,---,0.00,VWS V14.01,2013-05-17 07:51:00,
2013-05-17 03:56:00,60.4,55.9,29.95,West,278,1.0,1.0,85,0.00,,---,0.00,VWS V14.01,2013-05-17 07:56:00,
2013-05-17 04:01:00,60.3,55.8,29.95,West,278,0.0,1.0,85,0.00,,---,0.00,VWS V14.01,2013-05-17 08:01:00,
2013-05-17 04:06:00,60.3,55.8,29.96,West,278,0.0,0.0,85,0.00,,---,0.00,VWS V14.01,2013-05-17 08:06:00,
2013-05-17 04:12:00,60.2,55.7,29.96,West,278,0.0,0.0,85,0.00,,---,0.00,VWS V14.01,2013-05-17 08:12:00,
2013-05-17 04:17:00,60.2,55.7,29.96,West,278,0.0,1.0,85,0.00,,---,0.00,VWS V14.01,2013-05-17 08:17:00,
2013-05-17 04:22:00,60.2,55.7,29.96,West,278,0.0,0.0,85,0.00,,---,0.00,VWS V14.01,2013-05-17 08:22:00,
2013-05-17 04:27:00,60.4,55.9,29.96,West,276,1.0,1.0,85,0.00,,---,0.00,VWS V14.01,2013-05-17 08:27:00,
2013-05-17 04:32:00,60.5,56.0,29.97,West,273,1.0,1.0,85,0.00,,---,0.00,VWS V14.01,2013-05-17 08:32:00,
2013-05-17 04:37:00,60.5,56.0,29.97,West,273,0.0,0.0,85,0.00,,---,0.00,VWS V14.01,2013-05-17 08:37:00,
2013-05-17 04:42:00,60.3,55.8,29.97,West,273,0.0,1.0,85,0.00,,---,0.00,VWS V14.01,2013-05-17 08:42:00,
2013-05-17 04:47:00,60.2,55.7,29.97,West,272,0.0,0.0,85,0.00,,---,0.00,VWS V14.01,2013-05-17 08:47:00,
2013-05-17 04:52:00,60.1,55.9,29.98,West,271,0.0,0.0,86,0.00,,---,0.00,VWS V14.01,2013-05-17 08:52:00,
2013-05-17 04:57:00,60.0,55.8,29.98,West,273,0.0,0.0,86,0.00,,---,0.00,VWS V14.01,2013-05-17 08:57:00,
2013-05-17 05:02:00,59.8,55.6,29.98,West,273,0.0,0.0,86,0.00,,---,0.00,VWS V14.01,2013-05-17 09:02:00,
2013-05-17 05:08:00,59.7,55.8,29.98,West,273,0.0,0.0,87,0.00,,---,0.00,VWS V14.01,2013-05-17 09:08:00,
2013-05-17 05:13:00,59.5,55.6,29.99,West,278,1.0,1.0,87,0.00,,---,0.00,VWS V14.01,2013-05-17 09:13:00,
2013-05-17 05:18:00,59.4,55.8,29.99,WNW,285,1.0,1.0,88,0.00,,---,0.00,VWS V14.01,2013-05-17 09:18:00,
2013-05-17 05:23:00,59.6,56.0,29.99,West,278,0.0,0.0,88,0.00,,---,0.00,VWS V14.01,2013-05-17 09:23:00,
2013-05-17 05:28:00,59.8,55.9,30.00,West,278,0.0,1.0,87,0.00,,---,0.00,VWS V14.01,2013-05-17 09:28:00,
2013-05-17 05:33:00,59.9,56.0,30.00,West,278,0.0,0.0,87,0.00,,---,0.00,VWS V14.01,2013-05-17 09:33:00,
2013-05-17 05:38:00,59.8,55.9,30.00,West,281,0.0,0.0,87,0.00,,---,0.00,VWS V14.01,2013-05-17 09:38:00,
2013-05-17 05:43:00,59.6,55.7,30.00,WNW,285,0.0,0.0,87,0.00,,---,0.00,VWS V14.01,2013-05-17 09:43:00,
2013-05-17 05:48:00,59.6,56.0,30.01,West,274,0.0,1.0,88,0.00,,---,0.00,VWS V14.01,2013-05-17 09:48:00,
2013-05-17 05:53:00,59.4,55.8,30.01,West,274,0.0,0.0,88,0.00,,---,0.00,VWS V14.01,2013-05-17 09:53:00,
2013-05-17 05:58:00,59.3,55.8,30.02,West,274,0.0,0.0,88,0.00,,---,0.00,VWS V14.01,2013-05-17 09:58:00,
2013-05-17 06:03:00,59.1,55.5,30.02,West,274,0.0,0.0,88,0.00,,---,0.00,VWS V14.01,2013-05-17 10:03:00,
2013-05-17 06:08:00,58.9,55.7,30.02,West,274,0.0,0.0,89,0.00,,---,0.00,VWS V14.01,2013-05-17 10:08:00,
2013-05-17 06:13:00,58.7,55.5,30.03,West,274,0.0,0.0,89,0.00,,---,0.00,VWS V14.01,2013-05-17 10:13:00,
2013-05-17 06:18:00,58.6,55.7,30.03,West,274,0.0,0.0,90,0.00,,---,0.00,VWS V14.01,2013-05-17 10:18:00,
2013-05-17 06:23:00,58.5,55.6,30.03,West,274,0.0,0.0,90,0.00,,---,0.00,VWS V14.01,2013-05-17 10:23:00,
2013-05-17 06:28:00,58.4,55.5,30.04,West,274,0.0,0.0,90,0.00,,---,0.00,VWS V14.01,2013-05-17 10:28:00,
2013-05-17 06:33:00,58.3,55.7,30.04,West,274,0.0,0.0,91,0.00,,---,0.00,VWS V14.01,2013-05-17 10:33:00,
2013-05-17 06:38:00,58.3,55.7,30.04,West,274,0.0,0.0,91,0.00,,---,0.00,VWS V14.01,2013-05-17 10:38:00,
2013-05-17 06:44:00,58.5,55.9,30.05,West,274,0.0,0.0,91,0.00,,---,0.00,VWS V14.01,2013-05-17 10:44:00,
2013-05-17 06:49:00,58.5,55.9,30.05,West,274,0.0,0.0,91,0.00,,---,0.00,VWS V14.01,2013-05-17 10:49:00,
2013-05-17 06:54:00,58.7,56.1,30.05,West,275,0.0,0.0,91,0.00,,---,0.00,VWS V14.01,2013-05-17 10:54:00,
2013-05-17 06:59:00,58.9,56.3,30.05,West,274,0.0,0.0,91,0.00,,---,0.00,VWS V14.01,2013-05-17 10:59:00,
2013-05-17 07:04:00,59.1,56.5,30.06,West,274,0.0,0.0,91,0.00,,---,0.00,VWS V14.01,2013-05-17 11:04:00,
2013-05-17 07:09:00,59.3,56.7,30.06,West,274,0.0,0.0,91,0.00,,---,0.00,VWS V14.01,2013-05-17 11:09:00,
2013-05-17 07:14:00,59.5,56.6,30.06,West,274,0.0,0.0,90,0.00,,---,0.00,VWS V14.01,2013-05-17 11:14:00,
2013-05-17 07:19:00,59.8,56.9,30.06,West,274,0.0,0.0,90,0.00,,---,0.00,VWS V14.01,2013-05-17 11:19:00,
2013-05-17 07:24:00,60.1,57.2,30.06,West,274,0.0,0.0,90,0.00,,---,0.00,VWS V14.01,2013-05-17 11:24:00,
2013-05-17 07:29:00,60.3,57.4,30.07,West,274,0.0,0.0,90,0.00,,---,0.00,VWS V14.01,2013-05-17 11:29:00,
2013-05-17 07:34:00,60.5,57.6,30.07,West,274,0.0,0.0,90,0.00,,---,0.00,VWS V14.01,2013-05-17 11:34:00,
2013-05-17 07:39:00,60.8,57.8,30.07,West,274,0.0,0.0,90,0.00,,---,0.00,VWS V14.01,2013-05-17 11:39:00,
2013-05-17 07:44:00,61.1,57.8,30.07,West,274,0.0,0.0,89,0.00,,---,0.00,VWS V14.01,2013-05-17 11:44:00,
2013-05-17 07:50:00,61.3,58.0,30.07,West,274,0.0,0.0,89,0.00,,---,0.00,VWS V14.01,2013-05-17 11:50:00,
2013-05-17 07:55:00,61.5,57.9,30.08,West,274,0.0,0.0,88,0.00,,---,0.00,VWS V14.01,2013-05-17 11:55:00,
2013-05-17 08:00:00,61.7,58.1,30.08,West,274,0.0,0.0,88,0.00,,---,0.00,VWS V14.01,2013-05-17 12:00:00,
2013-05-17 08:05:00,62.0,58.1,30.08,West,274,0.0,0.0,87,0.00,,---,0.00,VWS V14.01,2013-05-17 12:05:00,
2013-05-17 08:10:00,62.3,58.1,30.08,West,274,0.0,0.0,86,0.00,,---,0.00,VWS V14.01,2013-05-17 12:10:00,
2013-05-17 08:15:00,62.6,58.4,30.08,West,274,0.0,0.0,86,0.00,,---,0.00,VWS V14.01,2013-05-17 12:15:00,
2013-05-17 08:20:00,62.9,58.7,30.08,West,274,0.0,0.0,86,0.00,,---,0.00,VWS V14.01,2013-05-17 12:20:00,
2013-05-17 08:26:00,63.2,58.6,30.08,West,274,0.0,0.0,85,0.00,,---,0.00,VWS V14.01,2013-05-17 12:26:00,
2013-05-17 08:31:00,63.5,58.9,30.08,West,274,0.0,0.0,85,0.00,,---,0.00,VWS V14.01,2013-05-17 12:31:00,
2013-05-17 08:36:00,63.8,58.9,30.08,SW,221,0.0,0.0,84,0.00,,---,0.00,VWS V14.01,2013-05-17 12:36:00,
2013-05-17 08:41:00,64.2,59.3,30.08,SSW,195,0.0,0.0,84,0.00,,---,0.00,VWS V14.01,2013-05-17 12:41:00,
2013-05-17 08:46:00,64.5,59.2,30.08,SSW,193,0.0,0.0,83,0.00,,---,0.00,VWS V14.01,2013-05-17 12:46:00,
2013-05-17 08:51:00,64.8,59.2,30.09,SSW,195,0.0,0.0,82,0.00,,---,0.00,VWS V14.01,2013-05-17 12:51:00,
2013-05-17 08:56:00,65.1,59.5,30.09,South,169,0.0,0.0,82,0.00,,---,0.00,VWS V14.01,2013-05-17 12:56:00,
2013-05-17 09:01:00,65.3,59.3,30.09,South,169,0.0,0.0,81,0.00,,---,0.00,VWS V14.01,2013-05-17 13:01:00,
2013-05-17 09:06:00,65.5,59.2,30.09,South,169,0.0,0.0,80,0.00,,---,0.00,VWS V14.01,2013-05-17 13:06:00,
2013-05-17 09:11:00,65.8,59.1,30.09,SE,133,0.0,0.0,79,0.00,,---,0.00,VWS V14.01,2013-05-17 13:11:00,
2013-05-17 09:17:00,66.0,57.9,30.09,SE,132,0.0,0.0,75,0.00,,---,0.00,VWS V14.01,2013-05-17 13:17:00,
2013-05-17 09:22:00,66.2,58.0,30.09,SE,132,0.0,0.0,75,0.00,,---,0.00,VWS V14.01,2013-05-17 13:22:00,
2013-05-17 09:27:00,66.3,57.0,30.09,SE,132,0.0,1.0,72,0.00,,---,0.00,VWS V14.01,2013-05-17 13:27:00,
2013-05-17 09:32:00,66.5,57.2,30.09,WSW,239,0.0,0.0,72,0.00,,---,0.00,VWS V14.01,2013-05-17 13:32:00,
2013-05-17 09:37:00,66.9,56.0,30.09,West,271,0.0,0.0,68,0.00,,---,0.00,VWS V14.01,2013-05-17 13:37:00,
2013-05-17 09:42:00,67.2,54.6,30.09,SW,222,0.0,0.0,64,0.00,,---,0.00,VWS V14.01,2013-05-17 13:42:00,
2013-05-17 09:47:00,67.6,55.0,30.09,ESE,115,0.0,1.0,64,0.00,,---,0.00,VWS V14.01,2013-05-17 13:47:00,
2013-05-17 09:52:00,67.8,55.2,30.09,WNW,301,0.0,0.0,64,0.00,,---,0.00,VWS V14.01,2013-05-17 13:52:00,
2013-05-17 09:58:00,68.1,54.2,30.09,NE,50,0.0,1.0,61,0.00,,---,0.00,VWS V14.01,2013-05-17 13:58:00,
2013-05-17 10:03:00,68.4,49.1,30.09,NE,51,0.0,0.0,50,0.00,,---,0.00,VWS V14.01,2013-05-17 14:03:00,
2013-05-17 10:08:00,68.7,50.9,30.09,NE,50,0.0,0.0,53,0.00,,---,0.00,VWS V14.01,2013-05-17 14:08:00,
2013-05-17 10:13:00,68.9,50.6,30.09,NNE,25,0.0,0.0,52,0.00,,---,0.00,VWS V14.01,2013-05-17 14:13:00,
2013-05-17 10:18:00,69.3,51.5,30.09,WSW,242,0.0,0.0,53,0.00,,---,0.00,VWS V14.01,2013-05-17 14:18:00,
2013-05-17 10:23:00,69.6,50.2,30.09,WSW,247,1.0,1.0,50,0.00,,---,0.00,VWS V14.01,2013-05-17 14:23:00,
2013-05-17 10:28:00,69.7,49.7,30.09,WSW,248,0.0,0.0,49,0.00,,---,0.00,VWS V14.01,2013-05-17 14:28:00,
2013-05-17 10:33:00,70.0,50.0,30.09,WSW,248,0.0,0.0,49,0.00,,---,0.00,VWS V14.01,2013-05-17 14:33:00,
2013-05-17 10:38:00,70.2,50.2,30.09,West,262,0.0,0.0,49,0.00,,---,0.00,VWS V14.01,2013-05-17 14:38:00,
2013-05-17 10:43:00,70.4,50.3,30.09,West,262,0.0,0.0,49,0.00,,---,0.00,VWS V14.01,2013-05-17 14:43:00,
2013-05-17 10:48:00,70.7,52.2,30.09,West,260,0.0,0.0,52,0.00,,---,0.00,VWS V14.01,2013-05-17 14:48:00,
2013-05-17 10:53:00,71.0,51.5,30.09,SE,135,0.0,0.0,50,0.00,,---,0.00,VWS V14.01,2013-05-17 14:53:00,
2013-05-17 10:58:00,71.0,53.0,30.09,NNW,347,0.0,0.0,53,0.00,,---,0.00,VWS V14.01,2013-05-17 14:58:00,
2013-05-17 11:04:00,71.1,53.6,30.09,North,5,0.0,1.0,54,0.00,,---,0.00,VWS V14.01,2013-05-17 15:04:00,
2013-05-17 11:09:00,71.1,53.6,30.09,ESE,121,0.0,0.0,54,0.00,,---,0.00,VWS V14.01,2013-05-17 15:09:00,
2013-05-17 11:14:00,71.5,54.5,30.09,North,353,0.0,0.0,55,0.00,,---,0.00,VWS V14.01,2013-05-17 15:14:00,
2013-05-17 11:19:00,71.9,53.3,30.09,NNW,340,0.0,0.0,52,0.00,,---,0.00,VWS V14.01,2013-05-17 15:19:00,
2013-05-17 11:24:00,72.3,54.7,30.09,NNE,22,2.0,2.0,54,0.00,,---,0.00,VWS V14.01,2013-05-17 15:24:00,
2013-05-17 11:29:00,72.6,55.5,30.09,NNW,343,0.0,1.0,55,0.00,,---,0.00,VWS V14.01,2013-05-17 15:29:00,
2013-05-17 11:34:00,72.6,55.0,30.09,ENE,65,0.0,1.0,54,0.00,,---,0.00,VWS V14.01,2013-05-17 15:34:00,
2013-05-17 11:39:00,72.8,57.2,30.09,ESE,107,0.0,2.0,58,0.00,,---,0.00,VWS V14.01,2013-05-17 15:39:00,
2013-05-17 11:44:00,73.2,56.6,30.09,SSW,208,0.0,0.0,56,0.00,,---,0.00,VWS V14.01,2013-05-17 15:44:00,
2013-05-17 11:50:00,73.4,57.3,30.08,North,359,1.0,2.0,57,0.00,,---,0.00,VWS V14.01,2013-05-17 15:50:00,
2013-05-17 11:55:00,73.7,57.0,30.08,NNE,25,0.0,1.0,56,0.00,,---,0.00,VWS V14.01,2013-05-17 15:55:00,
2013-05-17 12:00:00,74.3,59.1,30.08,WNW,290,0.0,0.0,59,0.00,,---,0.00,VWS V14.01,2013-05-17 16:00:00,
2013-05-17 12:05:00,74.8,58.1,30.08,West,262,0.0,1.0,56,0.00,,---,0.00,VWS V14.01,2013-05-17 16:05:00,
2013-05-17 12:10:00,75.2,59.4,30.08,NW,326,0.0,0.0,58,0.00,,---,0.00,VWS V14.01,2013-05-17 16:10:00,
2013-05-17 12:15:00,76.0,59.7,30.08,SSW,204,0.0,1.0,57,0.00,,---,0.00,VWS V14.01,2013-05-17 16:15:00,
2013-05-17 12:20:00,76.7,60.3,30.08,ESE,103,0.0,1.0,57,0.00,,---,0.00,VWS V14.01,2013-05-17 16:20:00,
2013-05-17 12:25:00,77.4,59.5,30.08,SW,221,0.0,1.0,54,0.00,,---,0.00,VWS V14.01,2013-05-17 16:25:00,
2013-05-17 12:30:00,77.7,59.8,30.08,NNW,347,0.0,1.0,54,0.00,,---,0.00,VWS V14.01,2013-05-17 16:30:00,
2013-05-17 12:35:00,77.5,58.5,30.08,South,191,0.0,0.0,52,0.00,,---,0.00,VWS V14.01,2013-05-17 16:35:00,
2013-05-17 12:40:00,77.7,60.8,30.08,West,276,0.0,1.0,56,0.00,,---,0.00,VWS V14.01,2013-05-17 16:40:00,
2013-05-17 12:45:00,78.0,59.5,30.08,SE,136,0.0,0.0,53,0.00,,---,0.00,VWS V14.01,2013-05-17 16:45:00,
2013-05-17 12:51:00,78.0,60.0,30.08,SSE,154,0.0,0.0,54,0.00,,---,0.00,VWS V14.01,2013-05-17 16:51:00,
2013-05-17 12:56:00,78.5,59.4,30.07,SSE,150,0.0,0.0,52,0.00,,---,0.00,VWS V14.01,2013-05-17 16:56:00,
2013-05-17 13:01:00,78.6,59.5,30.08,NNE,33,0.0,1.0,52,0.00,,---,0.00,VWS V14.01,2013-05-17 17:01:00,
2013-05-17 13:06:00,78.5,60.0,30.07,SE,132,0.0,1.0,53,0.00,,---,0.00,VWS V14.01,2013-05-17 17:06:00,
2013-05-17 13:11:00,77.7,60.3,30.07,South,189,0.0,0.0,55,0.00,,---,0.00,VWS V14.01,2013-05-17 17:11:00,
2013-05-17 13:16:00,77.9,59.9,30.07,East,101,0.0,0.0,54,0.00,,---,0.00,VWS V14.01,2013-05-17 17:16:00,
2013-05-17 13:21:00,77.9,61.0,30.07,ESE,121,0.0,0.0,56,0.00,,---,0.00,VWS V14.01,2013-05-17 17:21:00,
2013-05-17 13:26:00,78.3,59.8,30.07,ESE,103,0.0,1.0,53,0.00,,---,0.00,VWS V14.01,2013-05-17 17:26:00,
2013-05-17 13:31:00,78.5,60.0,30.07,SE,139,0.0,1.0,53,0.00,,---,0.00,VWS V14.01,2013-05-17 17:31:00,
2013-05-17 13:36:00,78.8,61.3,30.07,North,353,1.0,1.0,55,0.00,,---,0.00,VWS V14.01,2013-05-17 17:36:00,
2013-05-17 13:41:00,79.0,61.5,30.06,ESE,106,1.0,1.0,55,0.00,,---,0.00,VWS V14.01,2013-05-17 17:41:00,
2013-05-17 13:46:00,78.9,59.8,30.07,NNE,22,0.0,0.0,52,0.00,,---,0.00,VWS V14.01,2013-05-17 17:46:00,
2013-05-17 13:52:00,78.7,61.2,30.06,ESE,104,0.0,0.0,55,0.00,,---,0.00,VWS V14.01,2013-05-17 17:52:00,
2013-05-17 13:57:00,78.0,59.5,30.06,East,100,0.0,0.0,53,0.00,,---,0.00,VWS V14.01,2013-05-17 17:57:00,
2013-05-17 14:02:00,77.6,61.2,30.06,ENE,57,0.0,1.0,57,0.00,,---,0.00,VWS V14.01,2013-05-17 18:02:00,
2013-05-17 14:07:00,77.7,60.8,30.06,NNW,334,0.0,0.0,56,0.00,,---,0.00,VWS V14.01,2013-05-17 18:07:00,
2013-05-17 14:12:00,77.8,58.8,30.06,West,276,1.0,2.0,52,0.00,,---,0.00,VWS V14.01,2013-05-17 18:12:00,
2013-05-17 14:18:00,78.0,60.0,30.06,NE,43,0.0,0.0,54,0.00,,---,0.00,VWS V14.01,2013-05-17 18:18:00,
2013-05-17 14:23:00,77.9,61.0,30.06,ENE,57,0.0,0.0,56,0.00,,---,0.00,VWS V14.01,2013-05-17 18:23:00,
2013-05-17 14:28:00,77.5,59.0,30.06,East,92,0.0,0.0,53,0.00,,---,0.00,VWS V14.01,2013-05-17 18:28:00,
2013-05-17 14:33:00,77.5,60.1,30.06,East,86,0.0,2.0,55,0.00,,---,0.00,VWS V14.01,2013-05-17 18:33:00,
2013-05-17 14:38:00,77.7,59.2,30.06,SE,132,0.0,0.0,53,0.00,,---,0.00,VWS V14.01,2013-05-17 18:38:00,
2013-05-17 14:43:00,77.8,60.4,30.05,SE,125,0.0,0.0,55,0.00,,---,0.00,VWS V14.01,2013-05-17 18:43:00,
2013-05-17 14:48:00,77.8,58.2,30.05,SSE,168,0.0,0.0,51,0.00,,---,0.00,VWS V14.01,2013-05-17 18:48:00,
2013-05-17 14:53:00,77.6,59.1,30.05,ESE,112,0.0,0.0,53,0.00,,---,0.00,VWS V14.01,2013-05-17 18:53:00,
2013-05-17 14:58:00,77.6,59.1,30.05,ESE,108,0.0,1.0,53,0.00,,---,0.00,VWS V14.01,2013-05-17 18:58:00,
2013-05-17 15:03:00,77.2,59.8,30.05,ESE,108,0.0,0.0,55,0.00,,---,0.00,VWS V14.01,2013-05-17 19:03:00,
2013-05-17 15:08:00,77.4,58.4,30.05,SSW,197,0.0,1.0,52,0.00,,---,0.00,VWS V14.01,2013-05-17 19:08:00,
2013-05-17 15:13:00,78.1,59.6,30.05,SSW,198,0.0,0.0,53,0.00,,---,0.00,VWS V14.01,2013-05-17 19:13:00,
2013-05-17 15:18:00,78.5,58.9,30.05,South,186,0.0,2.0,51,0.00,,---,0.00,VWS V14.01,2013-05-17 19:18:00,
2013-05-17 15:23:00,78.8,58.0,30.05,NNE,29,0.0,1.0,49,0.00,,---,0.00,VWS V14.01,2013-05-17 19:23:00,
2013-05-17 15:28:00,78.8,60.8,30.04,ESE,114,0.0,0.0,54,0.00,,---,0.00,VWS V14.01,2013-05-17 19:28:00,
2013-05-17 15:33:00,78.4,58.2,30.04,East,98,0.0,0.0,50,0.00,,---,0.00,VWS V14.01,2013-05-17 19:33:00,
2013-05-17 15:38:00,77.6,59.7,30.04,SE,129,0.0,0.0,54,0.00,,---,0.00,VWS V14.01,2013-05-17 19:38:00,
2013-05-17 15:44:00,77.2,58.2,30.04,ESE,121,0.0,0.0,52,0.00,,---,0.00,VWS V14.01,2013-05-17 19:44:00,
2013-05-17 15:49:00,76.8,58.4,30.04,NE,50,0.0,0.0,53,0.00,,---,0.00,VWS V14.01,2013-05-17 19:49:00,
2013-05-17 15:54:00,76.5,59.2,30.04,NNW,342,0.0,0.0,55,0.00,,---,0.00,VWS V14.01,2013-05-17 19:54:00,
2013-05-17 15:59:00,76.3,59.5,30.04,NNW,343,0.0,0.0,56,0.00,,---,0.00,VWS V14.01,2013-05-17 19:59:00,
2013-05-17 16:04:00,76.0,58.7,30.04,NNW,342,0.0,0.0,55,0.00,,---,0.00,VWS V14.01,2013-05-17 20:04:00,
2013-05-17 16:09:00,76.1,57.8,30.04,South,181,0.0,0.0,53,0.00,,---,0.00,VWS V14.01,2013-05-17 20:09:00,
2013-05-17 16:14:00,76.1,62.2,30.03,SE,128,0.0,1.0,62,0.00,,---,0.00,VWS V14.01,2013-05-17 20:14:00,
2013-05-17 16:19:00,76.4,61.0,30.03,NW,307,1.0,1.0,59,0.00,,---,0.00,VWS V14.01,2013-05-17 20:19:00,
2013-05-17 16:24:00,76.9,60.0,30.03,North,356,0.0,0.0,56,0.00,,---,0.00,VWS V14.01,2013-05-17 20:24:00,
2013-05-17 16:29:00,77.1,59.2,30.03,North,356,2.0,2.0,54,0.00,,---,0.00,VWS V14.01,2013-05-17 20:29:00,
2013-05-17 16:34:00,77.5,61.6,30.03,SE,136,0.0,1.0,58,0.00,,---,0.00,VWS V14.01,2013-05-17 20:34:00,
2013-05-17 16:40:00,77.3,60.9,30.03,ESE,116,0.0,0.0,57,0.00,,---,0.00,VWS V14.01,2013-05-17 20:40:00,
2013-05-17 16:45:00,77.1,60.7,30.03,ESE,114,0.0,0.0,57,0.00,,---,0.00,VWS V14.01,2013-05-17 20:45:00,
2013-05-17 16:50:00,76.9,60.0,30.03,SSE,156,0.0,0.0,56,0.00,,---,0.00,VWS V14.01,2013-05-17 20:50:00,
2013-05-17 16:55:00,76.8,59.4,30.03,SSE,156,0.0,0.0,55,0.00,,---,0.00,VWS V14.01,2013-05-17 20:55:00,
2013-05-17 17:00:00,76.9,60.0,30.03,SSE,159,0.0,0.0,56,0.00,,---,0.00,VWS V14.01,2013-05-17 21:00:00,
2013-05-17 17:05:00,76.7,60.3,30.03,ENE,60,0.0,1.0,57,0.00,,---,0.00,VWS V14.01,2013-05-17 21:05:00,
2013-05-17 17:11:00,76.5,57.6,30.03,SSW,194,0.0,0.0,52,0.00,,---,0.00,VWS V14.01,2013-05-17 21:11:00,
2013-05-17 17:16:00,76.7,59.8,30.03,West,259,0.0,1.0,56,0.00,,---,0.00,VWS V14.01,2013-05-17 21:16:00,
2013-05-17 17:21:00,76.7,60.3,30.03,NE,52,0.0,0.0,57,0.00,,---,0.00,VWS V14.01,2013-05-17 21:21:00,
2013-05-17 17:26:00,77.0,59.6,30.03,SSE,158,0.0,0.0,55,0.00,,---,0.00,VWS V14.01,2013-05-17 21:26:00,
2013-05-17 17:31:00,77.2,59.8,30.03,SSE,156,0.0,0.0,55,0.00,,---,0.00,VWS V14.01,2013-05-17 21:31:00,
2013-05-17 17:36:00,76.8,59.4,30.03,SSE,157,0.0,0.0,55,0.00,,---,0.00,VWS V14.01,2013-05-17 21:36:00,
2013-05-17 17:41:00,76.6,58.7,30.03,SSE,149,0.0,0.0,54,0.00,,---,0.00,VWS V14.01,2013-05-17 21:41:00,
2013-05-17 17:46:00,77.0,58.6,30.03,SSW,211,0.0,0.0,53,0.00,,---,0.00,VWS V14.01,2013-05-17 21:46:00,
2013-05-17 17:51:00,76.9,59.5,30.03,SSW,211,0.0,0.0,55,0.00,,---,0.00,VWS V14.01,2013-05-17 21:51:00,
2013-05-17 17:57:00,76.8,58.4,30.03,SSW,210,0.0,0.0,53,0.00,,---,0.00,VWS V14.01,2013-05-17 21:57:00,
2013-05-17 18:02:00,76.4,58.0,30.03,SSE,153,0.0,0.0,53,0.00,,---,0.00,VWS V14.01,2013-05-17 22:02:00,
2013-05-17 18:07:00,76.0,58.2,30.03,SSE,153,0.0,0.0,54,0.00,,---,0.00,VWS V14.01,2013-05-17 22:07:00,
2013-05-17 18:12:00,75.5,57.2,30.03,SSE,153,0.0,0.0,53,0.00,,---,0.00,VWS V14.01,2013-05-17 22:12:00,
2013-05-17 18:17:00,75.1,57.8,30.03,SSE,154,0.0,0.0,55,0.00,,---,0.00,VWS V14.01,2013-05-17 22:17:00,
2013-05-17 18:22:00,74.6,57.9,30.03,SSE,154,0.0,0.0,56,0.00,,---,0.00,VWS V14.01,2013-05-17 22:22:00,
2013-05-17 18:27:00,74.2,57.0,30.03,SSE,153,0.0,0.0,55,0.00,,---,0.00,VWS V14.01,2013-05-17 22:27:00,
2013-05-17 18:33:00,73.8,57.1,30.03,SSE,153,0.0,0.0,56,0.00,,---,0.00,VWS V14.01,2013-05-17 22:33:00,
2013-05-17 18:38:00,73.3,57.2,30.03,SSE,153,0.0,0.0,57,0.00,,---,0.00,VWS V14.01,2013-05-17 22:38:00,
2013-05-17 18:43:00,73.1,57.0,30.03,SSE,154,0.0,0.0,57,0.00,,---,0.00,VWS V14.01,2013-05-17 22:43:00,
2013-05-17 18:48:00,72.8,57.2,30.03,SSE,154,0.0,0.0,58,0.00,,---,0.00,VWS V14.01,2013-05-17 22:48:00,
2013-05-17 18:53:00,72.7,57.6,30.04,SSE,153,0.0,0.0,59,0.00,,---,0.00,VWS V14.01,2013-05-17 22:53:00,
2013-05-17 18:58:00,72.6,57.5,30.04,SSE,153,0.0,0.0,59,0.00,,---,0.00,VWS V14.01,2013-05-17 22:58:00,
2013-05-17 19:03:00,72.7,57.6,30.04,SSE,154,0.0,0.0,59,0.00,,---,0.00,VWS V14.01,2013-05-17 23:03:00,
2013-05-17 19:08:00,72.7,57.1,30.04,SSE,154,0.0,0.0,58,0.00,,---,0.00,VWS V14.01,2013-05-17 23:08:00,
2013-05-17 19:13:00,72.6,57.5,30.04,SSE,153,0.0,0.0,59,0.00,,---,0.00,VWS V14.01,2013-05-17 23:13:00,
2013-05-17 19:18:00,72.5,56.9,30.04,SSE,153,0.0,0.0,58,0.00,,---,0.00,VWS V14.01,2013-05-17 23:18:00,
2013-05-17 19:23:00,72.4,57.3,30.04,SSE,153,0.0,0.0,59,0.00,,---,0.00,VWS V14.01,2013-05-17 23:23:00,
2013-05-17 19:28:00,72.2,57.6,30.04,SSE,154,0.0,0.0,60,0.00,,---,0.00,VWS V14.01,2013-05-17 23:28:00,
2013-05-17 19:33:00,71.8,57.6,30.05,SSE,154,0.0,0.0,61,0.00,,---,0.00,VWS V14.01,2013-05-17 23:33:00,
2013-05-17 19:38:00,71.5,57.8,30.05,SSE,154,0.0,0.0,62,0.00,,---,0.00,VWS V14.01,2013-05-17 23:38:00,
2013-05-17 19:43:00,71.3,58.1,30.05,SSE,153,0.0,0.0,63,0.00,,---,0.00,VWS V14.01,2013-05-17 23:43:00,
2013-05-17 19:48:00,71.0,57.3,30.05,SSE,153,0.0,0.0,62,0.00,,---,0.00,VWS V14.01,2013-05-17 23:48:00,
2013-05-17 19:53:00,70.9,57.7,30.06,SSE,154,0.0,0.0,63,0.00,,---,0.00,VWS V14.01,2013-05-17 23:53:00,
2013-05-17 19:58:00,70.7,57.1,30.06,SSE,153,0.0,0.0,62,0.00,,---,0.00,VWS V14.01,2013-05-17 23:58:00,
2013-05-17 20:03:00,70.6,57.4,30.06,SSE,154,0.0,0.0,63,0.00,,---,0.00,VWS V14.01,2013-05-18 00:03:00,
2013-05-17 20:08:00,70.4,57.2,30.06,SSE,153,0.0,0.0,63,0.00,,---,0.00,VWS V14.01,2013-05-18 00:08:00,
2013-05-17 20:14:00,70.3,58.0,30.06,SSE,154,0.0,0.0,65,0.00,,---,0.00,VWS V14.01,2013-05-18 00:14:00,
2013-05-17 20:19:00,70.5,55.5,30.07,SSE,152,0.0,1.0,59,0.00,,---,0.00,VWS V14.01,2013-05-18 00:19:00,
2013-05-17 20:24:00,70.5,55.5,30.07,SE,124,0.0,0.0,59,0.00,,---,0.00,VWS V14.01,2013-05-18 00:24:00,
2013-05-17 20:29:00,70.5,54.5,30.07,SSE,149,0.0,0.0,57,0.00,,---,0.00,VWS V14.01,2013-05-18 00:29:00,
2013-05-17 20:34:00,70.3,54.4,30.07,SE,129,0.0,0.0,57,0.00,,---,0.00,VWS V14.01,2013-05-18 00:34:00,
2013-05-17 20:39:00,70.1,53.7,30.07,SE,132,0.0,1.0,56,0.00,,---,0.00,VWS V14.01,2013-05-18 00:39:00,
2013-05-17 20:44:00,70.1,53.7,30.07,ESE,118,1.0,2.0,56,0.00,,---,0.00,VWS V14.01,2013-05-18 00:44:00,
2013-05-17 20:49:00,69.6,53.7,30.07,ESE,110,0.0,1.0,57,0.00,,---,0.00,VWS V14.01,2013-05-18 00:49:00,
2013-05-17 20:54:00,69.2,53.8,30.07,ESE,118,2.0,2.0,58,0.00,,---,0.00,VWS V14.01,2013-05-18 00:54:00,
2013-05-17 20:59:00,69.0,53.6,30.07,ESE,105,2.0,2.0,58,0.00,,---,0.00,VWS V14.01,2013-05-18 00:59:00,
2013-05-17 21:04:00,68.8,53.4,30.07,ESE,105,0.0,0.0,58,0.00,,---,0.00,VWS V14.01,2013-05-18 01:04:00,
2013-05-17 21:10:00,68.9,54.0,30.07,ESE,119,3.0,3.0,59,0.00,,---,0.00,VWS V14.01,2013-05-18 01:10:00,
2013-05-17 21:15:00,68.6,53.7,30.08,ESE,105,0.0,2.0,59,0.00,,---,0.00,VWS V14.01,2013-05-18 01:15:00,
2013-05-17 21:20:00,68.6,53.2,30.08,East,101,1.0,1.0,58,0.00,,---,0.00,VWS V14.01,2013-05-18 01:20:00,
2013-05-17 21:25:00,68.7,53.8,30.08,ESE,102,0.0,1.0,59,0.00,,---,0.00,VWS V14.01,2013-05-18 01:25:00,
2013-05-17 21:30:00,68.5,53.2,30.09,East,101,1.0,1.0,58,0.00,,---,0.00,VWS V14.01,2013-05-18 01:30:00,
2013-05-17 21:35:00,68.5,53.6,30.09,ESE,117,2.0,2.0,59,0.00,,---,0.00,VWS V14.01,2013-05-18 01:35:00,
2013-05-17 21:40:00,68.5,53.2,30.09,ESE,103,0.0,1.0,58,0.00,,---,0.00,VWS V14.01,2013-05-18 01:40:00,
2013-05-17 21:45:00,68.4,53.1,30.09,ESE,109,1.0,2.0,58,0.00,,---,0.00,VWS V14.01,2013-05-18 01:45:00,
2013-05-17 21:50:00,68.3,52.5,30.10,ESE,113,1.0,2.0,57,0.00,,---,0.00,VWS V14.01,2013-05-18 01:50:00,
2013-05-17 21:55:00,68.2,52.4,30.10,ESE,109,1.0,2.0,57,0.00,,---,0.00,VWS V14.01,2013-05-18 01:55:00,
2013-05-17 22:00:00,68.1,52.8,30.10,ESE,105,0.0,2.0,58,0.00,,---,0.00,VWS V14.01,2013-05-18 02:00:00,
2013-05-17 22:06:00,68.0,51.7,30.10,ESE,108,0.0,0.0,56,0.00,,---,0.00,VWS V14.01,2013-05-18 02:06:00,
2013-05-17 22:11:00,68.0,51.7,30.10,ESE,111,2.0,2.0,56,0.00,,---,0.00,VWS V14.01,2013-05-18 02:11:00,
2013-05-17 22:16:00,68.0,52.2,30.10,ESE,108,1.0,2.0,57,0.00,,---,0.00,VWS V14.01,2013-05-18 02:16:00,
2013-05-17 22:21:00,67.8,51.5,30.10,ESE,111,3.0,3.0,56,0.00,,---,0.00,VWS V14.01,2013-05-18 02:21:00,
2013-05-17 22:26:00,67.7,51.5,30.10,ESE,106,0.0,2.0,56,0.00,,---,0.00,VWS V14.01,2013-05-18 02:26:00,
2013-05-17 22:31:00,67.6,51.4,30.10,ESE,122,1.0,3.0,56,0.00,,---,0.00,VWS V14.01,2013-05-18 02:31:00,
2013-05-17 22:36:00,67.6,50.4,30.11,East,100,0.0,1.0,54,0.00,,---,0.00,VWS V14.01,2013-05-18 02:36:00,
2013-05-17 22:41:00,67.6,50.9,30.11,ESE,103,1.0,1.0,55,0.00,,---,0.00,VWS V14.01,2013-05-18 02:41:00,
2013-05-17 22:47:00,67.5,50.3,30.11,ESE,117,3.0,3.0,54,0.00,,---,0.00,VWS V14.01,2013-05-18 02:47:00,
2013-05-17 22:52:00,67.5,50.3,30.11,ESE,113,2.0,2.0,54,0.00,,---,0.00,VWS V14.01,2013-05-18 02:52:00,
2013-05-17 22:57:00,67.6,50.9,30.11,ESE,117,1.0,3.0,55,0.00,,---,0.00,VWS V14.01,2013-05-18 02:57:00,
2013-05-17 23:02:00,67.6,49.9,30.11,ESE,115,2.0,2.0,53,0.00,,---,0.00,VWS V14.01,2013-05-18 03:02:00,
2013-05-17 23:07:00,67.6,49.9,30.11,ESE,113,3.0,3.0,53,0.00,,---,0.00,VWS V14.01,2013-05-18 03:07:00,
2013-05-17 23:12:00,67.7,50.5,30.11,ESE,115,3.0,4.0,54,0.00,,---,0.00,VWS V14.01,2013-05-18 03:12:00,
2013-05-17 23:17:00,67.6,49.9,30.11,SE,136,1.0,2.0,53,0.00,,---,0.00,VWS V14.01,2013-05-18 03:17:00,
2013-05-17 23:22:00,67.7,50.5,30.11,ESE,108,1.0,3.0,54,0.00,,---,0.00,VWS V14.01,2013-05-18 03:22:00,
2013-05-17 23:27:00,67.5,50.3,30.11,ESE,106,3.0,3.0,54,0.00,,---,0.00,VWS V14.01,2013-05-18 03:27:00,
2013-05-17 23:32:00,67.3,50.1,30.11,ESE,121,3.0,3.0,54,0.00,,---,0.00,VWS V14.01,2013-05-18 03:32:00,
2013-05-17 23:37:00,67.2,50.5,30.11,ESE,105,0.0,3.0,55,0.00,,---,0.00,VWS V14.01,2013-05-18 03:37:00,
2013-05-17 23:42:00,67.0,50.3,30.11,ESE,113,3.0,3.0,55,0.00,,---,0.00,VWS V14.01,2013-05-18 03:42:00,
2013-05-17 23:47:00,66.8,50.1,30.11,ESE,102,1.0,3.0,55,0.00,,---,0.00,VWS V14.01,2013-05-18 03:47:00,
2013-05-17 23:53:00,66.9,50.7,30.11,ESE,119,2.0,2.0,56,0.00,,---,0.00,VWS V14.01,2013-05-18 03:53:00,
2013-05-17 23:58:00,66.8,50.1,30.11,ESE,121,2.0,3.0,55,0.00,,---,0.00,VWS V14.01,2013-05-18 03:58:00,